Flag for U.S.A. Weather past 2 weeks in Olathe, Kansas, U.S.A.

Now
73 °F

Sunny.


Feels Like: 77 °F
Forecast: 45 / 72 °F
Wind: No wind

Location: Johnson County Executive Airport

Current Time: Oct 21, 2014 at 5:16:54 PM

Latest Report: Oct 21, 2014 at 4:53 PM


Visibility: 9 mi

Pressure: 30.05 "Hg

Humidity: 36%

Dew point: 44 °F

Location of OlatheLocation

Historic Weather in Olathe — Graph

°F

Olathe temperature yesterday

Maximum temperature yesterday: 74 °F (at 2:53 PM)
Minimum temperature yesterday: 52 °F (at 7:53 AM)
Average temperature yesterday: 61 °F

Past Weeks' High & Low Weather Summary

 TemperatureHumidityPressure
High78 °F (Oct 16, 4:53 PM)100% (Oct 9, 4:53 PM)30.24 "Hg (Oct 9, 4:53 PM)
Low42 °F (Oct 19, 5:53 AM)33% (Oct 15, 3:53 PM)29.47 "Hg (Oct 13, 2:53 PM)
Average58 °F70%29.95 "Hg
* Reported Oct 6 3:53 PM — Oct 21 3:53 PM, Olathe, Weather by CustomWeather, © 2014

Note: Actual official high and low records may vary slightly from our data, if they occured in-between our weather recording intervals... More about our weather records

Advertising

Olathe weather history for previous 24 hours

 ConditionsComfort  
Time TempWeatherWind HumidityBarometerVisibility
3:53 PM
Oct 21
73 °FSunny.5 mph34%30.06 "Hg10 mi
2:53 PM73 °FSunny.No wind36%30.06 "Hg10 mi
1:53 PM72 °FSunny.No wind40%30.08 "Hg10 mi
12:53 PM72 °FSunny.N/A34%30.10 "Hg10 mi
11:53 AM70 °FSunny.No wind44%30.11 "Hg10 mi
10:53 AM67 °FSunny.No wind49%30.12 "Hg9 mi
9:53 AM63 °FSunny.No wind63%30.12 "Hg8 mi
8:53 AM54 °FSunny.No wind77%30.12 "Hg6 mi
7:53 AM48 °FClear.No wind80%30.10 "Hg10 mi
6:53 AM48 °FClear.No wind83%30.09 "Hg10 mi
5:53 AM47 °FClear.No wind93%30.08 "Hg10 mi
4:53 AM50 °FClear.No wind77%30.07 "Hg9 mi
3:53 AM49 °FClear.No wind86%30.06 "Hg10 mi
2:53 AM48 °FClear.No wind86%30.06 "Hg10 mi
1:53 AM50 °FClear.No wind83%30.06 "Hg10 mi
12:53 AM53 °FClear.No wind74%30.06 "Hg10 mi
11:53 PM
Oct 20
52 °FClear.5 mph77%30.06 "Hg7 mi
10:53 PM53 °FClear.No wind80%30.06 "Hg10 mi
9:53 PM52 °FClear.No wind83%30.05 "Hg10 mi
8:53 PM61 °FClear.No wind54%30.04 "Hg10 mi
7:53 PM64 °FClear.3 mph50%30.03 "Hg10 mi
6:53 PM67 °FSunny.3 mph44%30.02 "Hg10 mi
5:53 PM72 °FSunny.6 mph37%30.01 "Hg10 mi
Weather by CustomWeather, © 2014

See weather overviewHow to use our weather pages